User: anonymous
Location: Unspecified
(0.0000°N, 0.0000°E)
Time: 06:24:07
(UTC+02:00)
Language:

GPS 2-12 Rocket1 - Orbit

View from above orbital plane
View from above orbital plane
View from above satellite
View from above satellite

Ground track
Ground track

The orbit data is extracted from the following two-line orbital elements,

1 21891U 92009B   14266.10602791  .00002009  00000-0  19889-3 0  3023
2 21891 019.9958 178.9275 0049095 012.2886 347.8722 14.81047954217979
Epoch (UTC): 23 September 2014 02:32:40
Eccentricity: 0.0049095
inclination: 19.9958°
perigee height: 591 km
apogee height: 660 km
right ascension of ascending node: 178.9275°
argument of perigee: 12.2886°
revolutions per day: 14.81047954
mean anomaly at epoch: 347.8722°
orbit number at epoch: 21797

The dashed part of the orbit path shows where the satellite is in the earth's shadow,  

DLR